Location: Rochester
(43.1610°N, 77.6109°W)
Time: 03:04:36
(UTC-05:00)

CUTE 1.7 + AOD 2 - Pass Details

Date: 17 October 2021
Orbit: 592 x 610 km, 97.6° (Epoch: 28 November)

Event Time Altitude Azimuth Distance (km) Brightness Sun altitude
Rises 05:47:28 0° 7° (N) 2,883 ? -18.9°
Reaches altitude 10° 05:49:41 10° 3° (N) 1,975 ? -18.4°
Maximum altitude 05:53:52 53° 287° (WNW) 754 ? -17.7°
Enters shadow 05:56:42 19° 216° (SW) 1,446 ? -17.2°
